New Bern, NC

11:45 AM EDT on October 18, 2017 (GMT -0400)
Craven County Regional

Weather History for KEWN - October, 2013

Change the Weather History Date:

Monday, October 21, 2013

  Actual Average Record
Temperature  
Mean Temperature 63 °F 62 °F  
Max Temperature 73 °F 73 °F 87 °F (1984)
Min Temperature 52 °F 51 °F 34 °F (1952)
Degree Days  
Heating Degree Days 2 5  
Month to date heating degree days 7 54  
Since 1 July heating degree days 9 61  
Cooling Degree Days 0 2  
Month to date cooling degree days 105 68  
Year to date cooling degree days 1990 1871  
Growing Degree Days 12 (Base 50)    
Moisture  
Dew Point 53 °F    
Average Humidity 70    
Maximum Humidity 90    
Minimum Humidity 49    
Precipitation  
Precipitation 0.00 in 0.10 in 2.31 in (1958)
Month to date precipitation 3.07 2.33  
Year to date precipitation 35.69 45.02  
Snow  
Snow 0.00 in - - ()
Month to date snowfall 0.0  
Since 1 July snowfall 0.0  
Snow Depth 0.00 in    
Sea Level Pressure  
Sea Level Pressure 30.10 in    
Wind  
Wind Speed 2 mph (NE)    
Max Wind Speed 10 mph    
Max Gust Speed 14 mph    
Visibility 10 miles    
Events      
T = Trace of Precipitation, MM = Missing Value Source: NWS Daily Summary

Daily Weather History Graph

Daily Weather History Graph

Search for Another Location

Airport or City:

Trip Planner

Search our weather history database for the weather conditions in past years. The results will help you decide how hot, cold, wet, or windy it might be!

Date:

Astronomy

Oct. 21, 2013 Rise Set
Actual Time 7:19 AM EDT 6:25 PM EDT
Civil Twilight 6:53 AM EDT 6:51 PM EDT
Nautical Twilight 6:24 AM EDT 7:20 PM EDT
Astronomical Twilight 5:54 AM EDT 7:50 PM EDT
Moon 8:22 PM EDT (10/21) 9:47 AM EDT (10/21)
Length of Visible Light 11h 57m
Length of Day
11h 06m
Waning Gibbous, 93% of the Moon is Illuminated
Oct 21
Waning Gibbous
Oct 26
Last Quarter
Nov 3
New
Nov 10
First Quarter
Nov 17
Full

Hourly Weather History & Observations

Time (EDT) Temp. Dew Point Humidity Pressure Visibility Wind Dir Wind Speed Gust Speed Precip Events Conditions
12:54 AM 55.0 °F 50.0 °F 83% 30.12 in 10.0 mi NNE 4.6 mph - N/A   Clear
1:54 AM 55.0 °F 51.1 °F 86% 30.13 in 10.0 mi NNE 5.8 mph - N/A   Clear
2:54 AM 54.0 °F 50.0 °F 86% 30.12 in 10.0 mi NE 5.8 mph - N/A   Clear
3:54 AM 55.0 °F 48.9 °F 80% 30.12 in 10.0 mi ENE 4.6 mph - N/A   Clear
4:54 AM 53.1 °F 48.0 °F 83% 30.12 in 10.0 mi ENE 3.5 mph - N/A   Clear
5:54 AM 53.1 °F 48.0 °F 83% 30.13 in 10.0 mi NE 4.6 mph - N/A   Clear
6:54 AM 52.0 °F 48.0 °F 86% 30.14 in 10.0 mi Calm Calm - N/A   Clear
7:54 AM 53.1 °F 48.0 °F 83% 30.15 in 10.0 mi NE 3.5 mph - N/A   Clear
8:54 AM 57.9 °F 48.9 °F 72% 30.17 in 10.0 mi NE 6.9 mph - N/A   Clear
9:54 AM 62.1 °F 50.0 °F 65% 30.16 in 10.0 mi ENE 6.9 mph - N/A   Clear
10:54 AM 66.0 °F 52.0 °F 60% 30.15 in - East 5.8 mph - N/A   Clear
11:54 AM 69.1 °F 52.0 °F 54% 30.15 in - ESE 5.8 mph - N/A   Scattered Clouds
12:54 PM 69.1 °F 52.0 °F 54% 30.13 in 10.0 mi Calm Calm - N/A   Overcast
1:54 PM 70.0 °F 52.0 °F 53% 30.09 in 10.0 mi Calm Calm - N/A   Clear
2:54 PM 72.0 °F 52.0 °F 49% 30.07 in 10.0 mi Calm Calm - N/A   Clear
3:54 PM 71.1 °F 52.0 °F 51% 30.05 in 10.0 mi NE 3.5 mph - N/A   Overcast
4:54 PM 71.1 °F 54.0 °F 55% 30.05 in 10.0 mi Calm Calm - N/A   Mostly Cloudy
5:54 PM 68.0 °F 55.9 °F 65% 30.06 in 10.0 mi Calm Calm - N/A   Mostly Cloudy
6:35 PM 64.4 °F 57.2 °F 77% 30.05 in 10.0 mi Calm Calm - N/A   Mostly Cloudy
6:54 PM 64.0 °F 57.9 °F 80% 30.05 in 10.0 mi Calm Calm - N/A   Mostly Cloudy
7:54 PM 64.9 °F 57.9 °F 78% 30.05 in 10.0 mi Calm Calm - N/A   Mostly Cloudy
8:04 PM 64.4 °F 57.2 °F 77% 30.05 in 10.0 mi Calm Calm - N/A   Scattered Clouds
8:54 PM 62.1 °F 57.0 °F 84% 30.05 in 10.0 mi Calm Calm - N/A   Clear
9:54 PM 61.0 °F 57.9 °F 90% 30.05 in 10.0 mi Calm Calm - N/A   Clear
10:54 PM 61.0 °F 57.9 °F 90% 30.04 in 10.0 mi Calm Calm - N/A   Clear
11:54 PM 61.0 °F 57.0 °F 87% 30.03 in 10.0 mi Calm Calm - N/A   Partly Cloudy